| time (UTC) | temp C | wind direction | speed KPH | gust KPH | rain 1hr cm | rain 24hr cm | rain mn cm | humidity % | barometer mb |
| 20260507084520 | 13 | 109 | 0.0 | 0.0 | 0.00 | 0.00 | 0.00 | 83 | 1017.2 |
| 20260507083029 | 14 | 109 | 0.0 | 0.0 | 0.00 | 0.00 | 0.00 | 82 | 1017.4 |
| 20260507081528 | 14 | 109 | 0.0 | 0.0 | 0.00 | 0.00 | 0.00 | 82 | 1017.4 |
| 20260507080030 | 14 | 109 | 0.0 | 1.6 | 0.00 | 0.00 | 0.00 | 83 | 1017.5 |
| 20260507074519 | 14 | 109 | 0.0 | 0.0 | 0.00 | 0.00 | 0.00 | 82 | 1017.4 |
| 20260507073022 | 15 | 109 | 0.0 | 0.0 | 0.00 | 0.00 | 0.00 | 81 | 1017.5 |
| 20260507071523 | 15 | 109 | 0.0 | 0.0 | 0.00 | 0.00 | 0.00 | 80 | 1017.5 |
| 20260507070036 | 15 | 109 | 0.0 | 0.0 | 0.00 | 0.00 | 0.00 | 80 | 1017.5 |
| 20260507064536 | 15 | 109 | 0.0 | 0.0 | 0.00 | 0.00 | 0.00 | 79 | 1017.7 |
| 20260507063029 | 15 | 109 | 0.0 | 0.0 | 0.00 | 0.00 | 0.00 | 78 | 1017.7 |
| 20260507061526 | 15 | 109 | 0.0 | 0.0 | 0.00 | 0.00 | 0.00 | 77 | 1017.7 |
| 20260507060028 | 16 | 109 | 0.0 | 0.0 | 0.00 | 0.00 | 0.00 | 77 | 1017.8 |
| 20260507054526 | 16 | 109 | 0.0 | 3.2 | 0.00 | 0.00 | 0.00 | 76 | 1017.7 |
| 20260507053018 | 16 | 212 | 0.0 | 0.0 | 0.00 | 0.00 | 0.00 | 76 | 1017.7 |
| 20260507051526 | 16 | 212 | 0.0 | 3.2 | 0.00 | 0.00 | 0.00 | 76 | 1017.5 |
| 20260507050036 | 16 | 204 | 0.0 | 0.0 | 0.00 | 0.00 | 0.00 | 74 | 1017.4 |
| 20260507044510 | 17 | 204 | 0.0 | 0.0 | 0.00 | 0.00 | 0.00 | 74 | 1017.5 |
| 20260507043018 | 17 | 204 | 0.0 | 3.2 | 0.00 | 0.00 | 0.00 | 73 | 1017.5 |
| 20260507041530 | 17 | 196 | 1.6 | 3.2 | 0.00 | 0.00 | 0.00 | 73 | 1017.4 |
| 20260507040025 | 17 | 190 | 0.0 | 3.2 | 0.00 | 0.00 | 0.00 | 72 | 1017.3 |
| 20260507034530 | 17 | 190 | 1.6 | 6.4 | 0.00 | 0.00 | 0.00 | 71 | 1017.1 |
| 20260507033016 | 18 | 179 | 0.0 | 4.8 | 0.00 | 0.00 | 0.00 | 70 | 1017.0 |
| 20260507031529 | 18 | 219 | 1.6 | 6.4 | 0.00 | 0.00 | 0.00 | 69 | 1016.8 |
| 20260507030022 | 18 | 196 | 1.6 | 6.4 | 0.00 | 0.00 | 0.00 | 69 | 1016.4 |
| 20260507024530 | 18 | 217 | 0.0 | 4.8 | 0.00 | 0.00 | 0.00 | 68 | 1016.4 |
| 20260507023028 | 18 | 209 | 3.2 | 6.4 | 0.00 | 0.00 | 0.00 | 67 | 1016.3 |
| 20260507021512 | 19 | 195 | 4.8 | 11.3 | 0.00 | 0.00 | 0.00 | 65 | 1016.2 |
| 20260507020026 | 20 | 205 | 1.6 | 6.4 | 0.00 | 0.00 | 0.00 | 62 | 1016.1 |
| 20260507014538 | 20 | 222 | 3.2 | 11.3 | 0.00 | 0.00 | 0.00 | 60 | 1016.0 |
| 20260507013026 | 20 | 234 | 3.2 | 8.0 | 0.00 | 0.00 | 0.00 | 59 | 1015.9 |
| 20260507011529 | 21 | 216 | 3.2 | 9.7 | 0.00 | 0.00 | 0.00 | 58 | 1015.8 |
| 20260507010018 | 21 | 206 | 3.2 | 8.0 | 0.00 | 0.00 | 0.00 | 57 | 1015.8 |
| 20260507004532 | 22 | 252 | 4.8 | 9.7 | 0.00 | 0.00 | 0.00 | 55 | 1015.8 |
| 20260507003031 | 22 | 284 | 3.2 | 11.3 | 0.00 | 0.00 | 0.00 | 54 | 1015.7 |
| 20260507001527 | 22 | 171 | 4.8 | 11.3 | 0.00 | 0.00 | 0.00 | 55 | 1015.6 |
| 20260507000024 | 22 | 230 | 8.0 | 14.5 | 0.00 | 0.00 | 0.00 | 55 | 1015.6 |
| 20260506234533 | 22 | 191 | 4.8 | 12.9 | 0.00 | 0.00 | 0.00 | 52 | 1015.5 |
| 20260506233022 | 23 | 168 | 4.8 | 11.3 | 0.00 | 0.00 | 0.00 | 51 | 1015.5 |
| 20260506231534 | 23 | 277 | 3.2 | 12.9 | 0.00 | 0.00 | 0.00 | 49 | 1015.5 |
| 20260506230030 | 23 | 238 | 6.4 | 14.5 | 0.00 | 0.00 | 0.00 | 46 | 1015.5 |
| 20260506224516 | 23 | 257 | 4.8 | 11.3 | 0.00 | 0.00 | 0.00 | 45 | 1015.8 |
| 20260506223037 | 23 | 269 | 3.2 | 12.9 | 0.00 | 0.00 | 0.00 | 47 | 1016.0 |
| 20260506221528 | 23 | 248 | 3.2 | 11.3 | 0.00 | 0.00 | 0.00 | 47 | 1016.2 |
| 20260506220030 | 23 | 299 | 1.6 | 12.9 | 0.00 | 0.00 | 0.00 | 48 | 1016.3 |
| 20260506214529 | 22 | 234 | 1.6 | 14.5 | 0.00 | 0.00 | 0.00 | 51 | 1016.4 |
| 20260506213028 | 23 | 232 | 1.6 | 12.9 | 0.00 | 0.00 | 0.00 | 50 | 1016.6 |
| 20260506211532 | 22 | 188 | 4.8 | 11.3 | 0.00 | 0.00 | 0.00 | 52 | 1016.9 |
| 20260506210030 | 22 | 236 | 4.8 | 9.7 | 0.00 | 0.00 | 0.00 | 53 | 1017.1 |
| 20260506204529 | 23 | 166 | 3.2 | 14.5 | 0.00 | 0.00 | 0.00 | 52 | 1017.2 |
| 20260506203031 | 22 | 243 | 4.8 | 12.9 | 0.00 | 0.00 | 0.00 | 53 | 1017.1 |
| 20260506201532 | 22 | 248 | 4.8 | 11.3 | 0.00 | 0.00 | 0.00 | 56 | 1017.4 |
| 20260506200011 | 22 | 193 | 4.8 | 12.9 | 0.00 | 0.00 | 0.00 | 54 | 1017.5 |
| 20260506194510 | 22 | 257 | 3.2 | 12.9 | 0.00 | 0.00 | 0.00 | 54 | 1017.7 |
| 20260506193017 | 22 | 304 | 3.2 | 12.9 | 0.00 | 0.00 | 0.00 | 57 | 1017.8 |
| 20260506191526 | 22 | 188 | 0.0 | 11.3 | 0.00 | 0.00 | 0.00 | 55 | 1017.9 |
| 20260506190006 | 21 | 237 | 1.6 | 12.9 | 0.00 | 0.00 | 0.00 | 57 | 1018.0 |
| 20260506184512 | 20 | 220 | 3.2 | 9.7 | 0.00 | 0.00 | 0.00 | 59 | 1018.1 |
| 20260506183030 | 21 | 227 | 1.6 | 8.0 | 0.00 | 0.00 | 0.00 | 56 | 1018.2 |
| 20260506181525 | 20 | 228 | 3.2 | 11.3 | 0.00 | 0.00 | 0.00 | 56 | 1018.3 |
| 20260506180028 | 21 | 239 | 1.6 | 6.4 | 0.00 | 0.00 | 0.00 | 53 | 1018.4 |
| 20260506174510 | 20 | 220 | 1.6 | 9.7 | 0.00 | 0.00 | 0.00 | 54 | 1018.3 |
| 20260506173012 | 20 | 5 | 0.0 | 4.8 | 0.00 | 0.00 | 0.00 | 56 | 1018.4 |
| 20260506171526 | 20 | 234 | 3.2 | 6.4 | 0.00 | 0.00 | 0.00 | 57 | 1018.5 |
| 20260506170033 | 19 | 61 | 1.6 | 3.2 | 0.00 | 0.00 | 0.00 | 57 | 1018.6 |
| 20260506164528 | 18 | 134 | 1.6 | 6.4 | 0.00 | 0.00 | 0.00 | 61 | 1018.6 |
| 20260506163015 | 18 | 196 | 3.2 | 9.7 | 0.00 | 0.00 | 0.00 | 64 | 1018.5 |
| 20260506161516 | 17 | 207 | 1.6 | 6.4 | 0.00 | 0.00 | 0.00 | 66 | 1018.5 |
| 20260506160022 | 18 | 175 | 3.2 | 6.4 | 0.00 | 0.00 | 0.00 | 64 | 1018.5 |
| 20260506154532 | 17 | 101 | 0.0 | 3.2 | 0.00 | 0.00 | 0.00 | 67 | 1018.7 |
| 20260506153010 | 16 | 223 | 0.0 | 3.2 | 0.00 | 0.00 | 0.00 | 70 | 1018.7 |
| 20260506151513 | 16 | 203 | 0.0 | 3.2 | 0.00 | 0.00 | 0.00 | 69 | 1018.7 |
| 20260506150020 | 16 | 217 | 0.0 | 3.2 | 0.00 | 0.00 | 0.00 | 70 | 1018.6 |
| 20260506144523 | 15 | 194 | 0.0 | 0.0 | 0.00 | 0.00 | 0.00 | 70 | 1018.6 |
| 20260506143032 | 15 | 139 | 0.0 | 0.0 | 0.00 | 0.00 | 0.00 | 71 | 1018.6 |
| 20260506141512 | 13 | 130 | 0.0 | 0.0 | 0.00 | 0.00 | 0.00 | 77 | 1018.6 |
| 20260506140026 | 11 | 164 | 0.0 | 0.0 | 0.00 | 0.00 | 0.00 | 82 | 1018.5 |
| 20260506134523 | 10 | 164 | 0.0 | 0.0 | 0.00 | 0.00 | 0.00 | 85 | 1018.4 |
| 20260506133024 | 9 | 164 | 0.0 | 0.0 | 0.00 | 0.00 | 0.00 | 86 | 1018.2 |
| 20260506131533 | 9 | 164 | 0.0 | 0.0 | 0.00 | 0.00 | 0.00 | 86 | 1017.9 |
| 20260506130021 | 10 | 164 | 0.0 | 0.0 | 0.00 | 0.00 | 0.00 | 85 | 1017.8 |
| 20260506124524 | 10 | 164 | 0.0 | 0.0 | 0.00 | 0.00 | 0.00 | 86 | 1017.8 |
| 20260506123030 | 10 | 164 | 0.0 | 0.0 | 0.00 | 0.00 | 0.00 | 85 | 1017.6 |
| 20260506121530 | 10 | 164 | 0.0 | 0.0 | 0.00 | 0.00 | 0.00 | 85 | 1017.7 |
| 20260506120039 | 10 | 164 | 0.0 | 0.0 | 0.00 | 0.00 | 0.00 | 85 | 1017.5 |
| 20260506114518 | 11 | 164 | 0.0 | 0.0 | 0.00 | 0.00 | 0.00 | 85 | 1017.5 |
| 20260506113030 | 11 | 164 | 0.0 | 0.0 | 0.00 | 0.03 | 0.00 | 86 | 1017.6 |
| 20260506111525 | 11 | 164 | 0.0 | 0.0 | 0.00 | 0.03 | 0.00 | 85 | 1017.5 |
| 20260506110028 | 11 | 164 | 0.0 | 0.0 | 0.00 | 0.03 | 0.00 | 84 | 1017.5 |
| 20260506104528 | 11 | 164 | 0.0 | 0.0 | 0.00 | 0.03 | 0.00 | 85 | 1017.7 |
| 20260506103018 | 11 | 164 | 0.0 | 0.0 | 0.00 | 0.03 | 0.00 | 85 | 1017.6 |
| 20260506101528 | 11 | 164 | 0.0 | 0.0 | 0.00 | 0.03 | 0.00 | 86 | 1017.5 |
| 20260506100028 | 11 | 164 | 0.0 | 0.0 | 0.00 | 0.03 | 0.00 | 89 | 1017.5 |
| 20260506094531 | 11 | 164 | 0.0 | 0.0 | 0.00 | 0.03 | 0.00 | 89 | 1017.5 |
| 20260506093020 | 11 | 164 | 0.0 | 0.0 | 0.00 | 0.03 | 0.00 | 89 | 1017.6 |
| 20260506091524 | 11 | 164 | 0.0 | 0.0 | 0.00 | 0.03 | 0.00 | 89 | 1017.6 |
| 20260506090041 | 11 | 164 | 0.0 | 0.0 | 0.00 | 0.03 | 0.00 | 88 | 1017.7 |